Location: Clanezzo
(45.7500°N, 9.6000°E)
Time: 09:41:58
(UTC+00:00)

SPROUT - Pass Details

Date: 05 July 2022
Orbit: 588 x 598 km, 97.9° (Epoch: 14 August)

Event Time Altitude Azimuth Distance (km) Brightness Sun altitude
Exits shadow 23:29:15 28° 106° (ESE) 1,122 ? -21.5°
Maximum altitude 23:30:34 35° 69° (ENE) 965 ? -21.5°
Drops below altitude 10° 23:34:22 10° 4° (N) 1,929 ? -21.5°
Sets 23:36:40 0° 355° (N) 2,837 ? -21.5°
